Погода в Михайловке

Россия / Республика Крым     45°31′35″N   34°38′20″E
темп.,
°C
ветер,
м/с
пор.,
м/с
влажн.,
%
обл.,
%
осадки,
мм/ч
давл.,
гПа
погр.,
м
21 апреля, ср
ср2100:00+9зюз71487100 0.0 1011556
03:00+9зюз6128699 0.0 1013394
06:00+9юз51183100 0.0 1014321
09:00+12зюз687087 0.0 1016614
12:00+16зюз565376 0.6 10171745
15:00+16зюз675481 1.6 10171645
18:00+14зюз67635 0.4 10181160
21:00+9зюз37835 0.5 1020135
22 апреля, чт
чт2200:00+7зюз36892 0.0 1020100
03:00+7юз33875 0.0 102143
06:00+6юз22865 0.0 102222
09:00+12юз34665 0.0 1023564
12:00+16зюз3451100 0.1 10221885
15:00+15юв1358100 0.3 1022714
18:00+15з35604 0.5 1022892
21:00+9зюз34820 0.8 102366
23 апреля, пт
пт2300:00+8зюз33850 0.0 102331
03:00+8ю22835 0.0 102210
06:00+7юв1287100 0.0 102210
09:00+13ю2364100 0.0 1022303
12:00+18ю3440100 0.0 10201578
15:00+19ю5538100 0.0 10182049
18:00+15ю5858100 0.0 1018358
21:00+12ююз226384 0.0 101916
24 апреля, сб
сб2400:00+9з22726 0.0 101913
03:00+7зюз357983 0.0 101896
06:00+9з4790100 0.0 1019431
09:00+11сз457343 0.0 1020755
12:00+14сз55506 0.0 10201626
15:00+15зсз67385 0.0 10202039
18:00+13зсз67508 0.0 10211430
21:00+7з487118 0.0 1023171
25 апреля, вс
вс2500:00+6зсз4772100 0.0 1023136
03:00+5ссз2264100 0.0 102322
06:00+4ссв0166100 0.0 102310
09:00+9ссв2347100 0.0 10231105
12:00+11св4340100 0.0 10221397
15:00+12св4437100 0.0 10211262
18:00+10в2243100 0.0 1021579
21:00+6ююз2255100 0.0 102115